Weather History for KTBN - January, 2014

Change the Weather History Date:

Sunday, January 26, 2014

  Actual Average Record
Temperature  
Mean Temperature 44 °F -  
Max Temperature 61 °F 40 °F 66 °F (1999)
Min Temperature 27 °F 26 °F 12 °F (2000)
Degree Days  
Heating Degree Days 21    
Moisture  
Dew Point 27 °F    
Average Humidity 49    
Maximum Humidity 71    
Minimum Humidity 32    
Precipitation  
Precipitation 0.00 in - - ()
Sea Level Pressure  
Sea Level Pressure 29.75 in    
Wind  
Wind Speed 9 mph (WSW)    
Max Wind Speed 23 mph    
Max Gust Speed 36 mph    
Visibility 10 miles    
Events      
Averages and records for this station are not official NWS values.
T = Trace of Precipitation, MM = Missing Value Source: NWS Daily Summary

Daily Weather History Graph

Daily Weather History Graph

Search for Another Location

Airport or City:

Trip Planner

Search our weather history database for the weather conditions in past years. The results will help you decide how hot, cold, wet, or windy it might be!

Date:

Astronomy

Jan. 26, 2014 Rise Set
Actual Time 7:17 AM CST 5:25 PM CST
Civil Twilight 6:49 AM CST 5:53 PM CST
Nautical Twilight 6:17 AM CST 6:25 PM CST
Astronomical Twilight 5:46 AM CST 6:56 PM CST
Moon 2:54 AM CST 1:15 PM CST
Length of Visible Light 11h 04m
Length of Day
10h 08m
Waning Crescent, 23% of the Moon is Illuminated
Jan 26
Waning Crescent
Jan 30
New
Feb 6
First Quarter
Feb 14
Full
Feb 22
Last Quarter

Hourly Weather History & Observations

Time (CST) Temp. Windchill Dew Point Humidity Pressure Visibility Wind Dir Wind Speed Gust Speed Precip Events Conditions
12:58 AM 27.5 °F 19.3 °F 4.3 °F 37% 29.84 in 10.0 mi South 8.1 mph - N/A   Clear
1:58 AM 33.1 °F 26.1 °F 19.9 °F 59% 29.81 in 10.0 mi SSW 8.1 mph - N/A   Clear
2:58 AM 35.2 °F 27.6 °F 25.2 °F 67% 29.77 in 10.0 mi SSW 10.4 mph - N/A   Clear
3:58 AM 37.0 °F 29.3 °F 27.5 °F 68% 29.73 in 10.0 mi SSW 11.5 mph 18.4 mph N/A   Clear
4:58 AM 39.0 °F 32.3 °F 28.4 °F 66% 29.72 in 10.0 mi SSW 10.4 mph 18.4 mph N/A   Clear
5:58 AM 39.9 °F 33.4 °F 29.1 °F 65% 29.71 in 10.0 mi SSW 10.4 mph 18.4 mph N/A   Clear
6:58 AM 40.1 °F 34.7 °F 29.7 °F 66% 29.72 in 10.0 mi SW 8.1 mph - N/A   Clear
7:58 AM 38.8 °F 33.8 °F 30.0 °F 71% 29.74 in 10.0 mi SW 6.9 mph - N/A   Clear
8:58 AM 45.7 °F 42.0 °F 31.5 °F 58% 29.73 in 10.0 mi WSW 6.9 mph - N/A   Clear
9:58 AM 52.2 °F - 32.2 °F 47% 29.74 in 10.0 mi West 8.1 mph 19.6 mph N/A   Clear
10:59 AM 54.5 °F - 31.6 °F 42% 29.73 in 10.0 mi WNW 10.4 mph 23.0 mph N/A   Clear
11:59 AM 57.2 °F - 32.0 °F 38% 29.69 in 10.0 mi West 8.1 mph - N/A   Clear
12:59 PM 59.2 °F - 31.8 °F 36% 29.66 in 10.0 mi Variable 5.8 mph 17.3 mph N/A   Clear
1:59 PM 60.3 °F - 30.7 °F 33% 29.64 in 10.0 mi West 9.2 mph 17.3 mph N/A   Clear
2:58 PM 61.3 °F - 30.7 °F 32% 29.62 in 10.0 mi WSW 12.7 mph 18.4 mph N/A   Clear
3:59 PM 59.5 °F - 30.7 °F 34% 29.64 in 10.0 mi WSW 10.4 mph 18.4 mph N/A   Clear
4:58 PM 57.7 °F - 30.6 °F 36% 29.66 in 10.0 mi West 5.8 mph - N/A   Overcast
5:58 PM 54.7 °F - 27.9 °F 36% 29.68 in 10.0 mi West 8.1 mph - N/A   Mostly Cloudy
6:59 PM 51.3 °F - 28.0 °F 41% 29.72 in 10.0 mi WNW 4.6 mph - N/A   Scattered Clouds
7:59 PM 48.7 °F - 26.8 °F 43% 29.75 in 10.0 mi West 5.8 mph - N/A   Clear
8:59 PM 47.7 °F - 26.4 °F 44% 29.78 in 10.0 mi West 5.8 mph - N/A   Overcast
9:59 PM 40.6 °F 31.2 °F 26.1 °F 56% 29.89 in 10.0 mi NNW 20.7 mph 35.7 mph N/A   Overcast
10:58 PM 34.9 °F 26.6 °F 19.2 °F 53% 29.96 in 10.0 mi NNW 11.5 mph 26.5 mph N/A   Overcast
11:59 PM 32.9 °F 20.4 °F 20.1 °F 59% 30.02 in 10.0 mi NNW 23.0 mph 33.4 mph N/A   Overcast